Location: Moncton
(46.0878°N, 64.7782°W)
Time: 10:29:43
(UTC-03:00)

ISS - Visible Passes

Search period start: 20 May 2019 00:00
Search period end: 30 May 2019 00:00
Orbit: 407 x 410 km, 51.6° (Epoch: 20 May)

Date Brightness Start Highest point End Pass type
(mag) Time Alt. Az. Time Alt. Az. Time Alt. Az.
20 May -1.8 00:53:10 10° WNW 00:56:08 30° N 00:59:06 10° ENE visible
20 May -3.1 02:29:54 10° WNW 02:33:09 54° NNE 02:36:25 10° E visible
20 May -3.0 04:06:40 10° WNW 04:09:37 29° SW 04:12:32 10° SSE visible
20 May -3.5 22:24:50 10° WSW 22:28:08 68° NNW 22:31:26 10° ENE visible
21 May -1.8 00:02:06 10° WNW 00:05:05 30° N 00:08:04 10° ENE visible
21 May -2.5 01:39:00 10° WNW 01:42:10 40° NNE 01:42:20 40° NNE visible
21 May -3.9 21:33:55 10° WSW 21:37:13 79° SSE 21:40:31 10° ENE visible
21 May -2.0 23:10:57 10° WNW 23:14:01 34° N 23:17:05 10° ENE visible
22 May -2.1 00:48:04 10° WNW 00:51:08 33° N 00:52:17 25° NE visible
22 May -1.1 02:24:38 10° WNW 02:24:58 12° WNW 02:24:58 12° WNW visible
22 May -2.4 22:19:49 10° W 22:22:58 41° NNW 22:26:08 10° ENE visible
22 May -1.9 23:57:04 10° WNW 00:00:03 30° N 00:02:39 12° ENE visible
23 May -1.9 01:33:43 10° WNW 01:35:20 26° NW 01:35:20 26° NW visible
23 May -3.0 21:28:41 10° WSW 21:31:57 55° NNW 21:35:13 10° ENE visible
23 May -1.8 23:05:59 10° WNW 23:08:57 30° N 23:11:55 10° ENE visible
24 May -2.8 00:42:47 10° WNW 00:45:51 46° N 00:45:51 46° N visible
24 May -1.9 22:14:50 10° WNW 22:17:51 31° N 22:20:52 10° ENE visible
24 May -2.3 23:51:51 10° WNW 23:54:57 36° NNE 23:56:25 23° ENE visible
25 May -1.3 01:28:24 10° WNW 01:29:07 15° WNW 01:29:07 15° WNW visible
25 May -2.0 23:00:50 10° WNW 23:03:51 31° N 23:06:52 10° ENE visible
26 May -2.7 00:37:25 10° WNW 00:39:44 42° NW 00:39:44 42° NW visible
26 May -1.9 22:09:45 10° WNW 22:12:43 29° N 22:15:41 10° ENE visible
26 May -3.2 23:46:28 10° WNW 23:49:44 54° NNE 23:50:22 45° ENE visible
27 May -2.6 22:55:30 10° WNW 22:58:39 40° NNE 23:01:00 16° E visible
28 May -2.1 00:32:04 10° WNW 00:33:43 25° W 00:33:43 25° W visible
28 May -2.2 22:04:29 10° WNW 22:07:32 33° N 22:10:35 10° ENE visible
28 May -4.0 23:41:02 10° WNW 23:44:21 81° SSW 23:44:23 81° S visible
29 May -3.5 22:50:01 10° WNW 22:53:19 66° NNE 22:55:04 25° E visible
